| time (UTC) | temp F | wind direction | speed MPH | gust MPH | rain 1hr in | rain 24hr in | rain mn in | humidity % | barometer mb |
| 20260906103003 | 77 | 177 | 4.0 | 8.0 | 0.00 | 0.03 | 0.00 | 53 | 1025.2 |
| 20260906102003 | 76 | 172 | 2.0 | 10.0 | 0.00 | 0.03 | 0.00 | 55 | 1025.2 |
| 20260906101106 | 76 | 140 | 2.0 | 8.0 | 0.00 | 0.03 | 0.00 | 52 | 1025.4 |
| 20260906100004 | 76 | 147 | 2.0 | 11.0 | 0.00 | 0.03 | 0.00 | 54 | 1025.5 |
| 20260906095107 | 76 | 178 | 2.0 | 6.0 | 0.00 | 0.03 | 0.00 | 55 | 1025.6 |
| 20260906094106 | 76 | 177 | 1.0 | 10.0 | 0.00 | 0.03 | 0.00 | 56 | 1025.7 |
| 20260906093106 | 76 | 77 | 2.0 | 4.0 | 0.00 | 0.03 | 0.00 | 55 | 1025.9 |
| 20260906092107 | 75 | 192 | 2.0 | 4.0 | 0.00 | 0.03 | 0.00 | 58 | 1026.0 |
| 20260906091107 | 74 | 148 | 1.0 | 7.0 | 0.00 | 0.03 | 0.00 | 54 | 1026.1 |
| 20260906090106 | 74 | 67 | 1.0 | 4.0 | 0.00 | 0.03 | 0.00 | 54 | 1026.1 |
| 20260906085106 | 74 | 51 | 1.0 | 3.0 | 0.00 | 0.03 | 0.00 | 57 | 1026.1 |
| 20260906084004 | 73 | 60 | 1.0 | 3.0 | 0.00 | 0.03 | 0.00 | 55 | 1026.2 |
| 20260906083107 | 73 | 56 | 1.0 | 3.0 | 0.00 | 0.03 | 0.00 | 57 | 1026.3 |
| 20260906082106 | 72 | 89 | 1.0 | 3.0 | 0.00 | 0.03 | 0.00 | 59 | 1026.4 |
| 20260906081106 | 71 | 167 | 0.0 | 4.0 | 0.00 | 0.03 | 0.00 | 59 | 1026.4 |
| 20260906080003 | 71 | 93 | 0.0 | 2.0 | 0.00 | 0.03 | 0.00 | 63 | 1026.5 |
| 20260906075107 | 69 | 51 | 0.0 | 2.0 | 0.00 | 0.03 | 0.00 | 67 | 1026.5 |
| 20260906074107 | 67 | 32 | 1.0 | 5.0 | 0.00 | 0.03 | 0.00 | 71 | 1026.4 |
| 20260906073003 | 66 | 102 | 0.0 | 3.0 | 0.00 | 0.03 | 0.00 | 85 | 1026.3 |
| 20260906072003 | 65 | 137 | 0.0 | 2.0 | 0.00 | 0.03 | 0.00 | 89 | 1026.4 |
| 20260906071106 | 64 | 130 | 0.0 | 2.0 | 0.00 | 0.03 | 0.00 | 92 | 1026.3 |
| 20260906070003 | 63 | 130 | 0.0 | 2.0 | 0.00 | 0.03 | 0.00 | 93 | 1026.5 |
| 20260906065107 | 62 | 130 | 0.0 | 2.0 | 0.00 | 0.03 | 0.00 | 93 | 1026.4 |
| 20260906064106 | 61 | 117 | 0.0 | 2.0 | 0.00 | 0.03 | 0.00 | 93 | 1026.5 |
| 20260906063106 | 61 | 88 | 0.0 | 1.0 | 0.00 | 0.03 | 0.00 | 93 | 1026.5 |
| 20260906062003 | 60 | 88 | 0.0 | 2.0 | 0.00 | 0.03 | 0.00 | 93 | 1026.3 |
| 20260906061107 | 60 | 70 | 1.0 | 4.0 | 0.00 | 0.03 | 0.00 | 93 | 1026.3 |
| 20260906060004 | 60 | 60 | 3.0 | 9.0 | 0.00 | 0.03 | 0.00 | 94 | 1026.1 |
| 20260906055003 | 59 | 55 | 1.0 | 8.0 | 0.00 | 0.03 | 0.00 | 94 | 1025.6 |
| 20260906054003 | 58 | 0 | 0.0 | 0.0 | 0.00 | 0.03 | 0.00 | 94 | 1025.4 |
| 20260906053003 | 57 | 0 | 0.0 | 0.0 | 0.00 | 0.03 | 0.00 | 93 | 1025.2 |
| 20260906052004 | 57 | 0 | 0.0 | 0.0 | 0.00 | 0.03 | 0.00 | 93 | 1025.1 |
| 20260906051107 | 57 | 0 | 0.0 | 0.0 | 0.00 | 0.03 | 0.00 | 93 | 1025.2 |
| 20260906050003 | 57 | 0 | 0.0 | 0.0 | 0.00 | 0.03 | 0.00 | 93 | 1025.1 |
| 20260906045003 | 57 | 348 | 0.0 | 0.0 | 0.00 | 0.03 | 0.00 | 93 | 1025.0 |
| 20260906044107 | 57 | 0 | 0.0 | 0.0 | 0.00 | 0.03 | 0.00 | 93 | 1025.0 |
| 20260906043004 | 57 | 348 | 0.0 | 0.0 | 0.00 | 0.03 | 0.00 | 93 | 1024.9 |
| 20260906042003 | 58 | 0 | 0.0 | 0.0 | 0.00 | 0.03 | 0.00 | 93 | 1024.8 |
| 20260906041106 | 58 | 0 | 0.0 | 0.0 | 0.00 | 0.03 | 0.00 | 93 | 1024.7 |
| 20260906040003 | 58 | 0 | 0.0 | 0.0 | 0.00 | 0.03 | 0.00 | 93 | 1024.5 |
| 20260906035107 | 58 | 348 | 0.0 | 0.0 | 0.00 | 0.03 | 0.00 | 93 | 1024.4 |
| 20260906034004 | 58 | 0 | 0.0 | 0.0 | 0.00 | 0.03 | 0.00 | 93 | 1024.2 |
| 20260906033106 | 59 | 0 | 0.0 | 0.0 | 0.00 | 0.03 | 0.00 | 93 | 1024.2 |
| 20260906032003 | 59 | 348 | 0.0 | 0.0 | 0.00 | 0.03 | 0.00 | 93 | 1024.2 |
| 20260906031106 | 59 | 353 | 0.0 | 0.0 | 0.00 | 0.03 | 0.00 | 93 | 1024.1 |
| 20260906030004 | 59 | 353 | 0.0 | 0.0 | 0.00 | 0.03 | 0.00 | 93 | 1024.1 |
| 20260906025004 | 59 | 0 | 0.0 | 0.0 | 0.00 | 0.03 | 0.00 | 93 | 1024.0 |
| 20260906024106 | 59 | 0 | 0.0 | 0.0 | 0.00 | 0.03 | 0.00 | 93 | 1024.0 |
| 20260906023106 | 59 | 0 | 0.0 | 0.0 | 0.00 | 0.03 | 0.00 | 93 | 1023.8 |
| 20260906022003 | 59 | 0 | 0.0 | 0.0 | 0.00 | 0.03 | 0.00 | 93 | 1023.8 |
| 20260906021107 | 59 | 0 | 0.0 | 0.0 | 0.00 | 0.03 | 0.00 | 93 | 1023.8 |
| 20260906020003 | 60 | 0 | 0.0 | 0.0 | 0.00 | 0.03 | 0.00 | 93 | 1023.8 |
| 20260906015106 | 60 | 0 | 0.0 | 0.0 | 0.00 | 0.03 | 0.00 | 93 | 1023.8 |
| 20260906014106 | 60 | 0 | 0.0 | 0.0 | 0.00 | 0.03 | 0.00 | 93 | 1023.8 |
| 20260906013107 | 59 | 353 | 0.0 | 0.0 | 0.00 | 0.03 | 0.00 | 92 | 1023.9 |
| 20260906012107 | 59 | 0 | 0.0 | 0.0 | 0.00 | 0.03 | 0.00 | 92 | 1023.9 |
| 20260906011106 | 59 | 0 | 0.0 | 0.0 | 0.00 | 0.03 | 0.00 | 92 | 1023.8 |
| 20260906010106 | 60 | 0 | 0.0 | 0.0 | 0.00 | 0.03 | 0.00 | 92 | 1023.7 |
| 20260906005107 | 60 | 0 | 0.0 | 0.0 | 0.00 | 0.03 | 0.00 | 92 | 1023.7 |
| 20260906004003 | 60 | 0 | 0.0 | 0.0 | 0.00 | 0.03 | 0.00 | 92 | 1023.6 |
| 20260906003106 | 60 | 0 | 0.0 | 0.0 | 0.00 | 0.03 | 0.00 | 91 | 1023.6 |
| 20260906002003 | 60 | 0 | 0.0 | 0.0 | 0.00 | 0.03 | 0.00 | 91 | 1023.6 |
| 20260906001107 | 60 | 0 | 0.0 | 0.0 | 0.00 | 0.03 | 0.00 | 91 | 1023.6 |
| 20260906000004 | 60 | 0 | 0.0 | 0.0 | 0.00 | 0.03 | 0.00 | 90 | 1023.5 |
| 20260905235106 | 60 | 0 | 0.0 | 0.0 | 0.00 | 0.03 | 0.00 | 90 | 1023.4 |
| 20260905234003 | 60 | 0 | 0.0 | 0.0 | 0.00 | 0.03 | 0.00 | 90 | 1023.2 |
| 20260905233004 | 61 | 0 | 0.0 | 0.0 | 0.00 | 0.03 | 0.00 | 90 | 1023.2 |
| 20260905232107 | 61 | 0 | 0.0 | 0.0 | 0.00 | 0.03 | 0.00 | 90 | 1023.2 |
| 20260905231003 | 61 | 0 | 0.0 | 0.0 | 0.00 | 0.03 | 0.00 | 89 | 1023.2 |
| 20260905230106 | 61 | 0 | 0.0 | 0.0 | 0.00 | 0.03 | 0.00 | 89 | 1023.1 |
| 20260905225003 | 62 | 0 | 0.0 | 0.0 | 0.00 | 0.03 | 0.00 | 89 | 1023.2 |
| 20260905224004 | 62 | 0 | 0.0 | 0.0 | 0.00 | 0.03 | 0.00 | 89 | 1023.1 |
| 20260905223004 | 62 | 0 | 0.0 | 0.0 | 0.00 | 0.03 | 0.00 | 89 | 1023.1 |
| 20260905222106 | 63 | 0 | 0.0 | 0.0 | 0.00 | 0.03 | 0.00 | 88 | 1023.1 |
| 20260905221003 | 63 | 353 | 0.0 | 0.0 | 0.00 | 0.03 | 0.00 | 88 | 1023.1 |
| 20260905215004 | 64 | 0 | 0.0 | 0.0 | 0.00 | 0.03 | 0.03 | 88 | 1022.9 |
| 20260905214003 | 64 | 0 | 0.0 | 0.0 | 0.00 | 0.03 | 0.03 | 88 | 1022.8 |
| 20260905213003 | 64 | 0 | 0.0 | 0.0 | 0.00 | 0.03 | 0.03 | 88 | 1022.8 |
| 20260905212003 | 64 | 0 | 0.0 | 0.0 | 0.00 | 0.03 | 0.03 | 88 | 1022.6 |
| 20260905211106 | 65 | 0 | 0.0 | 0.0 | 0.00 | 0.03 | 0.03 | 88 | 1022.4 |
| 20260905210004 | 65 | 0 | 0.0 | 0.0 | 0.00 | 0.03 | 0.03 | 87 | 1022.4 |
| 20260905205106 | 65 | 0 | 0.0 | 0.0 | 0.00 | 0.03 | 0.03 | 87 | 1022.5 |
| 20260905204106 | 65 | 0 | 0.0 | 0.0 | 0.00 | 0.03 | 0.03 | 87 | 1022.5 |
| 20260905203003 | 65 | 353 | 0.0 | 0.0 | 0.00 | 0.03 | 0.03 | 86 | 1022.4 |
| 20260905202107 | 65 | 0 | 0.0 | 0.0 | 0.00 | 0.03 | 0.03 | 86 | 1022.3 |
| 20260905201107 | 65 | 0 | 0.0 | 0.0 | 0.00 | 0.03 | 0.03 | 86 | 1022.3 |
| 20260905200106 | 66 | 0 | 0.0 | 0.0 | 0.00 | 0.03 | 0.03 | 86 | 1021.9 |
| 20260905195106 | 66 | 348 | 0.0 | 1.0 | 0.00 | 0.03 | 0.03 | 86 | 1021.9 |
| 20260905194004 | 66 | 346 | 0.0 | 0.0 | 0.00 | 0.03 | 0.03 | 85 | 1021.8 |
| 20260905193107 | 66 | 0 | 0.0 | 0.0 | 0.00 | 0.03 | 0.03 | 84 | 1021.6 |
| 20260905192003 | 66 | 346 | 0.0 | 0.0 | 0.00 | 0.03 | 0.03 | 83 | 1021.3 |
| 20260905191003 | 67 | 0 | 0.0 | 0.0 | 0.00 | 0.03 | 0.03 | 82 | 1021.2 |
| 20260905190004 | 67 | 346 | 0.0 | 1.0 | 0.00 | 0.03 | 0.03 | 82 | 1021.0 |
| 20260905185003 | 66 | 343 | 0.0 | 1.0 | 0.00 | 0.03 | 0.03 | 83 | 1020.9 |
| 20260905184106 | 66 | 334 | 0.0 | 1.0 | 0.00 | 0.03 | 0.03 | 85 | 1021.0 |
| 20260905183004 | 66 | 280 | 0.0 | 0.0 | 0.00 | 0.03 | 0.03 | 86 | 1020.9 |
| 20260905182003 | 66 | 280 | 0.0 | 0.0 | 0.00 | 0.03 | 0.03 | 86 | 1020.8 |
| 20260905181003 | 66 | 0 | 0.0 | 0.0 | 0.00 | 0.03 | 0.03 | 86 | 1020.7 |
| 20260905180106 | 66 | 0 | 0.0 | 0.0 | 0.00 | 0.03 | 0.03 | 86 | 1020.7 |
| 20260905175107 | 66 | 0 | 0.0 | 0.0 | 0.00 | 0.03 | 0.03 | 85 | 1020.4 |
| 20260905174106 | 67 | 276 | 0.0 | 1.0 | 0.00 | 0.03 | 0.03 | 83 | 1020.2 |
| 20260905173106 | 67 | 276 | 0.0 | 0.0 | 0.00 | 0.03 | 0.03 | 83 | 1020.0 |
| 20260905172107 | 68 | 276 | 0.0 | 0.0 | 0.00 | 0.03 | 0.03 | 83 | 1020.0 |
| 20260905171107 | 68 | 276 | 0.0 | 1.0 | 0.00 | 0.03 | 0.03 | 81 | 1020.1 |
| 20260905170003 | 69 | 276 | 0.0 | 0.0 | 0.00 | 0.03 | 0.03 | 82 | 1019.9 |
| 20260905165003 | 69 | 276 | 0.0 | 0.0 | 0.00 | 0.03 | 0.03 | 82 | 1019.8 |
| 20260905164107 | 70 | 276 | 0.0 | 0.0 | 0.00 | 0.03 | 0.03 | 82 | 1019.7 |
| 20260905163004 | 70 | 276 | 0.0 | 0.0 | 0.00 | 0.03 | 0.03 | 82 | 1019.6 |
| 20260905162003 | 71 | 276 | 0.0 | 0.0 | 0.00 | 0.03 | 0.03 | 81 | 1019.6 |
| 20260905161106 | 71 | 276 | 0.0 | 0.0 | 0.00 | 0.03 | 0.03 | 81 | 1019.6 |
| 20260905160004 | 72 | 276 | 0.0 | 1.0 | 0.00 | 0.03 | 0.03 | 81 | 1019.6 |
| 20260905155107 | 72 | 276 | 0.0 | 1.0 | 0.00 | 0.03 | 0.03 | 80 | 1019.7 |
| 20260905154106 | 73 | 276 | 0.0 | 0.0 | 0.00 | 0.03 | 0.03 | 78 | 1019.6 |
| 20260905153106 | 73 | 276 | 0.0 | 1.0 | 0.00 | 0.03 | 0.03 | 77 | 1019.4 |
| 20260905152106 | 73 | 276 | 0.0 | 2.0 | 0.00 | 0.03 | 0.03 | 73 | 1019.6 |
| 20260905151107 | 72 | 276 | 0.0 | 0.0 | 0.00 | 0.03 | 0.03 | 79 | 1019.5 |
| 20260905150004 | 71 | 276 | 0.0 | 1.0 | 0.03 | 0.03 | 0.03 | 84 | 1019.7 |
| 20260905145106 | 71 | 276 | 0.0 | 0.0 | 0.03 | 0.03 | 0.03 | 82 | 1019.8 |
| 20260905144003 | 71 | 276 | 0.0 | 0.0 | 0.03 | 0.03 | 0.03 | 81 | 1019.9 |
| 20260905143107 | 71 | 276 | 0.0 | 2.0 | 0.03 | 0.03 | 0.03 | 81 | 1020.0 |
| 20260905142107 | 71 | 353 | 0.0 | 2.0 | 0.03 | 0.03 | 0.03 | 80 | 1020.1 |
| 20260905141003 | 72 | 2 | 0.0 | 1.0 | 0.03 | 0.03 | 0.03 | 76 | 1020.1 |
| 20260905140004 | 72 | 2 | 0.0 | 0.0 | 0.00 | 0.00 | 0.00 | 72 | 1020.1 |
| 20260905135106 | 71 | 2 | 0.0 | 1.0 | 0.00 | 0.00 | 0.00 | 68 | 1020.2 |
| 20260905134004 | 72 | 10 | 1.0 | 3.0 | 0.00 | 0.00 | 0.00 | 69 | 1020.3 |
| 20260905133107 | 72 | 357 | 1.0 | 4.0 | 0.00 | 0.00 | 0.00 | 66 | 1020.3 |
| 20260905132106 | 73 | 337 | 1.0 | 3.0 | 0.00 | 0.00 | 0.00 | 65 | 1020.2 |
| 20260905131003 | 74 | 335 | 2.0 | 2.0 | 0.00 | 0.00 | 0.00 | 60 | 1020.0 |
| 20260905130004 | 75 | 2 | 2.0 | 4.0 | 0.00 | 0.00 | 0.00 | 56 | 1020.0 |
| 20260905125003 | 76 | 358 | 1.0 | 7.0 | 0.00 | 0.00 | 0.00 | 50 | 1020.2 |
| 20260905124106 | 76 | 65 | 1.0 | 4.0 | 0.00 | 0.00 | 0.00 | 49 | 1020.0 |
| 20260905123106 | 77 | 76 | 1.0 | 2.0 | 0.00 | 0.00 | 0.00 | 51 | 1019.8 |
| 20260905122107 | 77 | 95 | 2.0 | 5.0 | 0.00 | 0.00 | 0.00 | 50 | 1019.7 |
| 20260905121003 | 77 | 52 | 2.0 | 8.0 | 0.00 | 0.00 | 0.00 | 47 | 1019.5 |
| 20260905120003 | 77 | 56 | 2.0 | 7.0 | 0.00 | 0.00 | 0.00 | 46 | 1019.5 |
| 20260905115003 | 78 | 65 | 2.0 | 9.0 | 0.00 | 0.00 | 0.00 | 47 | 1019.7 |
| 20260905114107 | 79 | 53 | 2.0 | 10.0 | 0.00 | 0.00 | 0.00 | 46 | 1019.6 |
| 20260905113004 | 79 | 76 | 2.0 | 6.0 | 0.00 | 0.00 | 0.00 | 46 | 1019.6 |
| 20260905112106 | 79 | 60 | 3.0 | 9.0 | 0.00 | 0.00 | 0.00 | 45 | 1019.5 |
| 20260905111106 | 79 | 81 | 4.0 | 10.0 | 0.00 | 0.00 | 0.00 | 45 | 1019.5 |
| 20260905110004 | 80 | 43 | 4.0 | 10.0 | 0.00 | 0.00 | 0.00 | 45 | 1019.5 |
| 20260905105106 | 80 | 39 | 4.0 | 11.0 | 0.00 | 0.00 | 0.00 | 48 | 1019.4 |
| 20260905104106 | 79 | 52 | 4.0 | 8.0 | 0.00 | 0.00 | 0.00 | 44 | 1019.5 |